GFSFLT2_con_3kmhel_090.txt.gz
Helicity
80 194 124 146 172 256 351 358 430 190 149 214 194 208 207 193 197 184 141 110 82 69 74 66 46 34 22 7 -2 -2 -14 -16
88 199 208 180 237 308 427 461 416 187 130 186 250 238 218 179 195 180 155 112 73 52 50 59 52 28 18 22 19 15 5 -5
72 142 202 217 195 312 444 384 354 167 203 241 279 269 205 175 183 178 152 116 99 86 83 80 82 53 48 44 27 -2 -19 -18
20 14 84 167 163 229 368 512 350 265 201 150 271 253 147 161 198 195 138 132 125 101 108 121 99 61 42 47 27 -12 -24 -19
59 50 90 110 148 360 671 556 404 437 221 123 239 221 195 221 264 235 158 147 132 117 101 82 91 46 36 66 42 -4 -30 -13
70 49 -57 31 234 236 551 565 330 254 130 103 226 241 226 233 227 194 137 126 144 106 106 97 80 40 82 60 21 -2 6 -4
29 -13 -31 1 198 507 632 322 339 135 141 114 209 235 214 193 172 167 171 145 138 120 127 92 60 73 75 52 18 25 18 9
12 29 84 267 160 533 639 258 258 236 160 171 204 201 190 163 160 158 167 145 120 109 119 84 82 82 76 43 34 35 34 24
43 28 102 217 371 420 314 308 202 255 100 122 159 215 171 162 130 132 136 155 139 184 140 139 127 91 76 56 39 35 40 34
66 43 70 102 239 417 381 293 261 235 163 132 162 151 158 199 152 133 250 138 141 174 129 152 105 93 92 51 37 41 39 36
79 89 85 95 38 190 211 159 174 163 166 210 133 203 153 143 106 172 169 136 153 158 133 149 100 87 84 63 49 54 47 51
97 112 172 195 185 160 213 226 140 121 145 164 209 192 168 134 152 112 175 133 135 133 132 129 94 106 112 87 81 81 73 56
113 160 188 178 230 245 237 200 142 143 146 221 392 150 150 135 116 117 115 92 99 118 149 136 147 141 149 112 98 93 77 74
84 133 260 174 290 302 333 273 240 296 467 375 278 329 135 112 146 104 99 92 94 124 163 178 152 155 151 141 99 103 87 105
63 90 171 220 257 381 204 307 310 344 445 385 233 81 71 156 60 63 72 78 91 107 142 195 204 155 167 163 143 122 158 180
67 93 136 220 274 264 185 223 268 253 314 180 210 150 64 165 53 58 60 82 86 129 173 188 214 242 221 197 207 163 150 153
27 60 94 140 158 162 114 117 86 183 196 151 -64 -83 81 32 43 57 51 87 120 141 155 173 220 243 318 293 278 288 287 292
40 31 21 30 64 47 47 62 20 22 -14 -82 -145 -135 -108 12 -2 27 59 93 143 145 161 185 201 234 247 305 318 351 306 305
74 56 27 15 7 8 32 36 43 45 -11 -91 -182 -189 -187 -186 -91 -56 10 104 125 151 186 212 254 248 261 273 339 360 367 345
61 58 17 17 -10 -24 -25 -6 -25 -37 -64 -87 -126 -153 -175 -158 -131 -83 -36 101 137 169 178 233 264 268 302 335 392 358 397 323

GFSFLT2_con_3kmhel_093.txt.gz
Helicity
202 79 222 38 131 66 244 247 251 265 246 234 280 256 229 217 175 146 92 46 45 67 62 44 34 24 18 13 28 26 36 26
130 135 16 15 -25 -39 179 171 239 283 252 238 259 265 277 237 189 121 77 51 56 67 64 44 28 24 29 15 23 1 36 32
86 165 105 17 -73 35 157 110 276 260 352 306 278 284 260 175 136 114 81 62 74 71 61 64 56 46 25 24 -2 26 26 21
19 71 159 149 203 206 283 123 217 309 327 276 306 257 251 170 146 143 89 61 73 90 87 81 43 27 23 32 13 19 24 25
23 50 106 127 212 272 322 293 314 353 343 307 323 273 270 256 193 133 88 88 70 72 78 43 34 28 17 18 26 32 12 12
34 64 85 114 158 245 348 367 346 492 403 305 438 348 303 284 203 116 108 75 77 44 39 38 38 65 43 50 30 31 9 9
-0 15 57 105 145 197 416 383 396 347 401 291 406 315 270 249 205 121 80 78 66 61 57 31 99 61 67 36 51 37 21 8
32 2 -33 57 13 214 312 442 515 552 514 316 352 268 260 215 189 120 95 80 65 73 62 44 74 83 58 57 63 38 10 5
41 44 50 126 78 166 454 504 727 539 384 294 303 230 247 199 175 142 106 115 82 94 94 87 101 86 72 68 61 35 5 10
44 78 122 121 522 440 607 710 503 358 399 347 202 216 230 223 170 155 102 98 118 144 123 87 113 78 80 67 45 30 22 31
56 72 114 108 209 439 529 322 327 282 267 256 185 176 181 210 200 153 135 137 181 192 123 100 91 82 96 80 62 53 39 35
74 88 89 108 194 265 255 290 264 214 161 152 109 154 151 183 200 177 175 152 118 155 123 101 87 102 112 86 87 70 58 39
54 92 80 136 118 188 253 295 209 180 181 188 171 172 134 135 160 183 142 82 131 150 143 111 131 125 166 110 87 69 61 60
60 80 128 102 130 165 179 167 165 174 137 142 143 148 194 139 140 146 105 96 98 98 136 163 147 131 156 145 103 80 69 91
70 96 109 124 133 223 305 328 248 116 144 247 222 251 215 136 90 133 107 110 95 99 146 126 145 130 149 149 121 106 118 142
39 68 123 170 144 140 183 323 222 144 174 224 316 291 284 222 152 149 135 99 85 82 132 133 145 141 173 142 175 164 119 94
75 68 75 107 121 137 178 182 174 283 243 220 309 309 292 232 155 74 95 36 35 91 110 114 161 193 209 214 195 185 194 159
76 96 101 120 156 148 98 98 130 196 189 194 337 296 232 49 -68 -115 -76 -4 47 79 109 123 156 185 183 258 281 232 285 244
68 66 72 82 94 111 115 59 5 66 98 116 183 170 118 21 -18 -20 21 20 29 40 62 115 180 143 197 255 257 245 280 302
71 72 59 55 55 37 36 14 -24 -20 6 20 48 74 66 -23 -24 -44 -83 -82 -35 16 60 112 158 189 208 264 295 256 306 309

GFSFLT2_con_3kmhel_096.txt.gz
Helicity
184 130 112 -46 91 134 159 285 275 288 241 221 223 201 206 204 164 139 146 126 89 64 47 40 30 35 23 -5 -30 -15 41 55
193 99 -2 133 67 116 171 115 232 286 251 233 212 212 239 205 208 185 143 120 77 50 40 40 39 27 5 -14 -9 -17 47 42
88 87 48 73 77 120 166 140 162 286 291 251 246 213 180 158 131 161 137 87 68 67 63 53 38 24 3 -26 -41 46 41 38
34 93 4 7 -2 -7 -9 100 86 227 271 161 125 194 164 112 146 174 117 81 91 82 72 52 2 12 3 -17 18 42 34 39
44 31 65 41 46 74 121 153 115 130 224 190 175 192 178 166 146 158 101 71 45 58 55 3 20 11 -6 15 44 18 28 49
43 5 31 76 91 144 144 199 98 228 165 186 233 277 248 201 135 162 102 58 55 39 12 21 19 16 19 37 27 29 21 53
13 42 63 102 82 181 286 277 222 227 167 202 215 303 297 199 175 168 119 80 29 16 27 28 37 33 17 39 26 40 28 45
17 39 52 72 101 139 271 292 396 263 276 294 204 294 308 291 189 144 130 51 32 19 37 40 56 46 40 45 41 33 23 43
22 29 33 21 1 123 201 323 234 340 357 372 302 356 352 386 222 126 100 55 60 47 56 64 73 30 56 50 52 35 38 40
44 28 44 40 82 126 229 290 438 356 467 442 367 333 244 368 147 118 121 101 68 85 74 81 74 42 54 64 58 51 42 31
54 36 57 78 196 105 178 312 384 344 395 458 453 279 245 170 155 114 103 121 98 93 70 78 97 52 62 69 79 71 50 43
64 36 65 89 174 274 284 624 493 491 474 466 485 284 161 197 175 124 125 135 112 103 93 92 85 75 67 83 76 85 61 60
47 62 50 77 143 311 433 523 426 569 658 408 275 195 112 216 108 106 122 112 102 117 84 96 117 116 106 97 87 98 69 67
52 66 53 74 129 152 322 327 445 430 320 232 222 217 125 123 112 119 131 118 114 107 115 102 146 127 115 88 93 87 81 98
55 80 79 47 98 151 212 289 177 191 149 236 200 205 69 97 70 60 109 109 103 93 110 111 62 109 126 121 99 82 64 96
63 101 85 35 53 105 149 151 186 170 177 148 172 160 179 139 67 79 89 91 126 106 89 92 32 75 111 95 107 174 101 95
86 77 100 127 85 119 160 192 213 162 132 116 137 179 166 178 129 93 100 80 134 126 92 -4 35 76 91 103 99 111 120 161
78 97 89 130 109 69 64 119 209 159 161 124 128 218 205 205 166 140 117 167 185 70 32 -49 17 40 78 119 135 132 103 144
58 68 82 70 64 57 47 79 74 90 105 149 130 147 180 252 231 166 139 115 61 10 -45 -50 6 36 68 120 184 193 176 202
50 52 45 63 41 27 48 42 35 31 46 35 94 179 173 205 182 117 61 21 -51 -70 -38 -9 -0 6 18 69 144 170 230 314

GFSFLT2_con_3kmhel_099.txt.gz
Helicity
162 123 142 201 204 -124 24 215 265 294 265 194 208 200 191 169 158 160 152 143 108 83 64 56 48 12 -19 -27 -31 15 38 54
184 187 202 154 141 78 12 131 198 231 234 201 218 205 178 185 176 148 142 145 111 86 69 52 28 -6 -24 -37 -36 -42 45 35
171 118 90 134 21 120 10 80 117 241 240 243 227 140 152 166 110 140 150 134 118 92 70 56 42 1 -32 -89 -97 11 28 78
146 99 56 16 21 63 24 239 195 182 222 184 144 130 183 114 144 149 138 137 120 105 65 49 1 5 -29 -59 -26 19 50 60
156 70 61 39 1 -36 27 111 218 124 168 165 189 150 88 165 165 133 109 127 92 67 46 4 17 -2 -13 -13 33 11 44 67
164 66 23 11 8 5 53 88 191 74 97 99 180 183 149 121 180 143 107 89 81 61 6 9 14 15 -9 31 -3 26 51 80
170 56 -9 5 39 53 58 61 198 143 130 137 137 211 210 106 144 200 95 79 66 51 32 30 6 15 18 10 -2 44 74 70
174 62 20 7 21 31 104 130 197 227 195 174 132 206 207 168 134 180 110 84 59 43 34 42 21 17 25 17 21 44 34 79
188 70 51 36 56 65 112 154 186 238 226 182 164 229 235 173 144 110 98 102 67 42 79 29 33 30 32 39 17 35 50 48
169 71 38 36 43 66 130 222 218 229 285 230 206 231 207 240 222 239 134 123 87 95 72 40 51 37 50 34 27 43 63 51
142 41 53 59 59 46 89 159 214 295 315 340 294 334 291 282 309 359 147 130 123 107 58 42 63 36 45 49 42 54 66 60
80 30 47 33 26 59 118 148 179 288 381 448 416 400 345 378 465 325 71 119 125 110 80 57 53 48 61 81 61 67 74 69
71 12 40 56 57 70 114 165 175 312 414 400 514 473 346 403 197 183 92 125 139 112 98 70 89 82 93 115 69 82 86 68
97 34 38 81 105 110 151 211 286 294 566 462 469 460 393 315 250 59 80 116 137 109 108 98 130 122 107 73 38 51 65 81
139 82 74 92 85 105 142 621 563 419 448 470 519 577 529 269 115 5 99 118 132 132 117 107 160 105 122 88 35 8 40 85
149 123 105 86 67 52 16 168 393 453 487 517 487 386 199 98 55 51 166 162 84 111 117 118 121 99 130 40 65 125 92 100
125 119 107 100 47 33 41 20 116 128 162 188 163 127 137 85 62 73 129 -7 62 102 109 124 173 86 58 29 14 63 92 114
105 128 93 135 168 108 98 84 102 115 146 190 226 256 212 173 122 110 167 70 76 113 148 145 150 54 81 -11 8 44 51 92
76 115 88 99 148 145 124 107 133 147 114 42 100 167 180 169 118 182 158 61 91 120 163 110 142 74 57 32 62 77 117 161
59 75 85 77 70 93 112 74 88 83 52 67 114 68 142 170 204 199 72 90 80 91 126 79 80 49 -1 -5 33 73 123 142

GFSFLT2_con_3kmhel_102.txt.gz
Helicity
134 167 143 156 167 164 176 313 188 8 199 346 304 64 49 121 123 133 136 102 79 76 73 36 -11 -24 10 39 64 128 131 92
178 181 187 257 237 163 144 125 133 -102 133 289 133 77 116 186 160 153 122 115 111 94 63 21 -22 -26 -1 35 101 102 51 54
177 174 172 183 137 131 120 170 177 59 103 311 258 86 149 188 137 154 116 92 92 82 71 37 4 -3 8 21 22 -10 135 116
173 190 145 167 85 125 99 51 105 71 149 353 137 86 187 142 149 151 133 97 103 84 60 40 39 9 -14 -12 20 66 160 102
254 210 181 145 53 81 39 80 64 112 221 297 42 116 161 200 167 182 171 118 120 82 77 42 29 -11 -11 -7 -2 68 143 89
267 196 185 101 71 109 -23 -27 158 380 293 195 85 215 179 176 169 171 156 106 112 85 29 14 -2 -19 9 -0 -23 84 152 94
248 153 173 72 28 58 27 19 37 135 228 90 171 225 195 184 177 152 139 135 109 72 20 6 -5 14 -5 5 -7 141 135 70
218 136 122 63 30 68 54 89 97 85 122 202 177 228 196 175 196 146 141 136 99 61 21 38 17 10 41 4 21 84 128 88
228 200 126 77 43 55 61 98 79 92 125 238 140 218 177 184 218 153 118 123 101 52 16 82 67 59 26 14 24 43 125 165
244 295 106 75 87 66 65 93 109 130 178 203 210 158 168 196 220 134 84 106 90 56 88 117 76 60 47 27 43 54 87 174
294 177 58 54 92 127 95 75 140 182 189 233 274 215 210 193 160 103 111 101 99 111 158 119 117 57 67 36 49 54 82 65
182 105 48 86 79 62 72 88 96 219 264 274 279 270 204 259 252 147 193 172 153 192 182 121 93 54 46 74 60 68 79 57
110 89 83 73 75 62 60 97 125 209 308 270 345 234 244 295 279 259 221 231 324 206 184 143 113 61 140 150 88 93 86 60
74 83 65 62 57 77 116 134 126 166 271 316 372 329 316 299 361 311 376 419 229 200 196 124 128 89 157 197 147 135 59 62
76 108 92 71 90 53 56 91 100 131 160 338 451 411 411 423 436 526 541 431 208 140 150 110 160 161 187 170 145 80 86 72
83 112 133 77 67 65 42 68 177 292 182 295 478 420 397 440 527 497 546 336 119 134 107 110 163 173 146 69 132 135 111 16
81 136 142 106 79 84 58 245 237 265 325 493 426 389 460 437 431 380 178 118 84 145 168 117 200 126 141 150 85 140 148 111
99 129 114 113 79 106 17 56 170 205 214 349 370 491 457 446 489 189 123 107 111 130 46 83 114 165 173 184 181 161 68 96
129 83 106 118 110 116 102 61 55 106 126 152 260 276 298 254 134 111 152 76 60 41 61 95 98 172 171 142 118 106 70 77
108 83 105 112 88 106 86 84 44 80 135 133 97 98 130 99 93 110 70 17 100 43 -22 55 64 136 240 260 135 107 103 82

GFSFLT2_con_3kmhel_108.txt.gz
Helicity
229 177 135 150 118 109 133 142 150 231 321 298 200 198 99 143 92 75 78 62 18 62 86 168 73 76 88 154 125 113 104 80
231 199 188 170 150 164 126 100 109 208 371 363 273 126 59 86 183 113 103 42 -4 58 116 125 67 96 135 139 114 88 79 97
212 212 201 178 196 187 200 208 112 206 328 336 269 228 304 154 95 120 96 24 -21 40 77 85 101 136 152 144 116 64 82 75
200 210 179 182 193 208 244 200 162 181 327 354 246 243 279 137 38 99 75 9 -49 -13 52 91 128 161 135 136 110 58 48 42
197 246 188 198 197 197 223 154 166 253 318 297 227 228 252 121 90 107 74 -13 -33 -48 23 107 132 160 122 109 90 62 14 13
230 246 217 202 221 209 142 109 163 169 223 400 436 213 184 171 138 102 126 73 24 101 89 168 143 153 78 115 87 65 26 23
299 294 248 211 229 235 137 128 201 159 197 237 464 351 232 135 106 120 142 116 98 87 87 167 132 150 51 100 83 52 28 22
326 292 234 234 246 180 95 85 144 89 165 158 145 293 202 95 112 145 123 100 88 49 150 138 129 159 80 74 64 67 56 42
305 248 203 250 230 112 73 89 93 177 181 149 152 266 226 166 163 161 112 87 122 172 175 141 146 144 86 73 78 83 41 56
297 270 260 239 148 75 74 66 59 112 190 160 144 215 199 166 148 155 144 131 147 169 161 141 117 116 131 78 81 92 51 48
328 300 295 237 88 62 68 74 20 54 36 173 183 142 138 146 170 163 163 156 152 157 165 156 100 98 127 84 110 101 48 47
319 287 307 222 124 73 88 82 10 16 51 218 266 237 142 112 144 171 179 165 174 178 129 147 109 104 160 117 95 87 73 57
306 288 281 245 163 105 96 84 44 12 25 38 134 145 144 134 169 192 145 144 158 165 194 154 140 152 204 206 159 64 72 79
284 250 259 217 156 111 74 118 42 51 62 52 26 123 161 177 162 154 152 158 126 145 186 233 172 185 207 216 218 153 53 44
240 210 243 214 135 146 110 88 136 50 71 110 68 85 144 195 230 208 167 167 195 167 150 162 193 222 193 223 265 167 141 104
193 178 214 190 144 136 143 107 77 127 120 74 138 153 156 232 277 241 166 214 182 199 184 202 250 186 273 209 170 108 197 165
190 171 205 181 145 124 101 71 77 101 52 140 101 221 182 278 301 375 242 217 254 252 288 305 303 270 225 315 246 203 160 149
217 170 194 194 145 120 85 53 59 46 1 41 153 282 321 301 336 382 299 273 317 391 408 351 302 216 286 284 213 244 182 154
198 159 169 181 137 85 82 70 57 85 27 108 108 201 395 377 357 425 255 310 357 356 387 283 284 339 221 189 190 136 165 142
174 157 160 174 158 64 49 52 38 58 52 115 199 271 455 495 411 367 411 410 374 336 314 416 383 317 264 178 126 147 106 183

GFSFLT2_con_3kmhel_111.txt.gz
Helicity
166 169 144 171 178 174 164 160 208 185 256 329 419 228 112 153 13 72 179 104 110 129 142 141 185 113 85 80 79 77 87 118
213 237 192 183 162 173 161 170 165 290 322 333 368 268 284 302 -11 42 120 126 111 115 120 136 123 85 81 95 72 128 154 99
224 265 206 178 185 186 180 142 233 313 347 310 317 315 212 55 59 84 81 137 108 101 111 145 99 104 117 103 111 90 124 110
247 271 215 185 176 201 217 233 286 351 376 367 357 316 311 141 190 97 54 127 102 94 116 141 117 151 108 116 105 91 82 73
288 287 221 206 204 218 245 280 330 355 379 374 332 307 276 243 223 145 98 129 145 125 116 155 114 159 81 132 112 76 52 45
347 297 259 229 235 240 243 281 330 270 270 320 411 378 318 279 263 251 151 145 110 114 100 104 117 117 122 126 83 59 57 38
351 361 296 257 246 255 270 275 251 198 248 329 379 391 366 313 284 173 150 176 83 109 169 175 146 114 117 105 96 75 44 32
340 379 327 308 267 290 288 297 190 165 241 231 254 354 267 194 205 286 180 121 131 164 168 200 154 104 134 124 101 74 62 34
341 359 351 316 279 282 280 185 155 157 172 121 206 354 410 243 216 235 214 180 155 182 212 240 156 120 120 120 89 77 62 37
383 352 343 265 273 263 177 88 115 125 212 172 158 172 406 335 374 202 184 211 188 160 174 224 136 143 133 112 111 81 61 52
407 314 300 237 226 198 137 88 93 87 157 218 100 107 373 332 256 195 184 156 154 124 174 193 199 173 120 119 102 84 73 55
382 251 278 251 237 163 143 108 66 78 94 193 122 206 171 187 191 185 192 170 178 157 123 192 274 205 163 116 95 98 85 56
362 295 324 300 269 213 176 157 78 49 -10 54 115 194 231 208 200 178 172 163 140 106 155 177 299 253 260 187 146 99 72 64
342 300 345 267 255 221 178 157 81 53 -16 50 87 153 161 149 112 129 143 147 149 159 162 303 276 224 242 253 211 152 70 51
324 316 309 256 268 282 268 211 161 80 85 74 80 129 142 86 112 142 131 134 115 162 181 217 267 221 218 225 262 173 156 106
287 310 314 277 252 260 239 217 169 96 100 98 62 100 173 148 76 98 133 191 155 163 195 234 283 237 301 269 233 155 203 179
292 288 298 279 222 202 215 188 165 168 112 97 112 102 24 94 57 111 150 214 191 224 185 225 276 287 296 361 334 245 214 172
278 281 261 244 201 176 185 185 160 123 123 128 94 139 139 183 205 192 197 219 248 230 260 267 323 313 320 298 309 320 251 251
240 263 265 190 177 165 171 171 148 92 78 85 88 136 250 281 253 265 242 303 327 272 319 349 335 319 330 346 305 293 274 245
217 242 255 179 156 148 138 154 112 50 12 33 62 116 194 445 357 344 286 348 399 387 355 388 450 473 409 369 294 298 203 191

GFSFLT2_con_3kmhel_114.txt.gz
Helicity
158 160 136 138 143 159 204 225 229 217 275 308 261 365 311 240 183 39 61 70 131 139 158 187 152 122 113 117 112 111 112 106
193 177 178 164 145 151 179 233 241 214 312 359 340 341 378 292 311 101 96 111 130 147 192 161 114 90 110 102 111 111 114 102
223 199 204 200 151 139 168 208 234 243 327 349 352 358 317 244 216 122 89 115 136 153 177 153 78 78 101 110 118 112 98 101
220 245 255 254 196 150 167 193 254 278 359 423 418 357 318 262 270 248 197 112 134 157 170 137 116 114 116 133 109 87 87 88
270 277 299 306 252 190 181 235 265 290 367 499 498 429 316 269 226 175 230 183 140 176 162 162 112 132 111 148 94 99 75 46
302 274 324 322 292 253 215 243 306 330 360 471 559 455 365 301 209 184 266 201 173 174 174 140 140 132 68 124 70 39 41 50
308 340 345 344 331 308 278 258 295 336 346 400 424 370 382 299 257 276 263 221 194 181 165 133 149 131 101 119 40 49 56 61
323 351 364 368 360 335 284 304 278 290 286 277 292 344 446 371 337 286 272 283 247 229 155 137 150 135 133 98 77 70 49 52
341 406 410 359 326 318 324 335 316 212 168 169 257 368 411 334 322 302 286 316 334 282 221 191 176 163 110 128 77 65 53 59
374 412 399 354 321 307 301 334 235 134 127 159 189 356 348 351 335 331 289 271 306 242 218 196 174 157 141 125 92 88 81 56
377 381 385 370 291 303 300 282 170 107 126 147 232 203 258 327 312 330 194 233 287 269 241 189 175 132 126 115 103 101 70 55
300 316 372 355 303 282 261 248 164 116 129 201 206 159 184 471 316 283 304 233 294 288 227 250 198 125 150 137 141 119 85 70
284 371 359 384 363 271 250 194 143 96 100 133 169 141 71 382 476 313 233 235 251 286 251 233 263 214 262 206 177 114 96 83
265 386 403 348 313 242 279 206 156 101 84 157 136 102 276 488 379 276 209 215 260 286 280 317 252 192 193 242 186 172 113 75
266 407 404 340 262 268 275 233 206 175 136 131 118 116 184 229 246 234 201 217 223 251 266 217 273 198 154 184 237 188 170 106
269 335 353 310 289 261 283 233 218 160 137 102 17 83 131 150 170 188 178 197 210 244 239 260 338 260 224 248 185 139 199 168
284 281 292 276 265 258 276 232 180 157 155 142 115 71 67 179 208 139 147 161 198 236 238 245 334 311 330 332 295 233 177 191
271 268 269 258 251 238 280 259 225 175 148 149 127 159 131 96 148 158 108 125 167 229 235 254 302 278 343 325 305 266 221 236
242 260 283 269 253 200 242 215 225 182 151 121 148 93 142 136 102 103 153 152 183 224 266 296 287 266 306 331 317 259 237 266
245 238 260 282 271 215 203 172 193 153 142 135 97 132 166 122 109 137 196 177 208 232 287 295 318 312 299 349 393 372 361 409

GFSFLT2_con_3kmhel_117.txt.gz
Helicity
131 131 129 132 143 159 165 193 200 155 180 247 190 314 157 295 253 182 92 174 126 113 159 158 121 139 146 149 137 92 58 40
184 159 137 125 131 175 176 173 178 158 226 288 308 333 259 321 321 175 36 189 72 138 161 152 123 130 134 131 111 74 46 43
202 191 169 134 147 180 201 181 157 165 232 302 301 268 302 310 271 127 89 194 181 181 154 134 115 116 122 110 60 41 40 32
228 230 206 161 161 213 189 207 188 185 202 270 310 331 333 323 266 147 169 222 189 140 164 126 83 75 91 79 42 39 45 52
255 278 235 202 213 222 239 245 254 234 204 257 302 353 373 321 213 123 177 229 259 190 131 85 72 75 66 58 50 52 44 42
206 250 264 241 237 240 265 273 318 312 289 313 348 396 389 313 215 214 219 218 178 144 162 96 63 66 64 61 57 32 45 31
153 234 240 256 251 270 269 296 323 323 344 333 359 377 376 413 273 280 258 251 139 185 171 107 73 78 79 66 42 44 57 30
164 210 260 276 272 262 281 316 329 346 387 350 357 373 344 290 287 267 264 245 101 186 217 131 61 73 81 59 35 41 27 30
142 200 283 298 303 273 300 295 349 323 328 340 298 277 310 306 329 407 264 290 186 198 158 145 83 85 83 63 57 46 20 29
79 184 239 292 334 325 338 293 344 308 273 232 183 214 188 235 354 388 362 342 253 249 180 131 105 102 94 86 60 56 21 32
52 149 198 281 298 307 314 278 332 293 231 171 122 160 230 282 366 480 375 327 304 265 189 172 143 109 93 104 65 63 30 38
62 109 159 220 287 315 296 278 284 268 228 168 125 169 205 232 319 627 435 353 312 275 220 191 144 135 140 118 88 83 50 46
69 54 138 235 312 390 335 298 254 225 207 132 132 122 172 221 331 373 361 339 315 276 274 237 194 166 179 154 129 98 62 59
34 40 128 180 299 337 320 256 244 176 175 140 115 132 172 137 296 526 343 305 285 285 254 254 217 183 186 155 189 122 74 65
25 58 105 164 248 300 281 260 220 187 186 151 118 172 128 141 190 404 391 338 242 229 252 268 275 184 146 205 244 163 104 77
39 65 105 186 234 247 222 244 220 194 224 155 150 170 199 277 283 433 337 267 283 240 250 264 284 254 177 222 172 134 144 149
64 66 115 203 244 224 189 217 177 183 196 166 141 152 195 252 251 271 304 269 241 214 210 222 242 305 258 256 224 153 127 148
87 92 110 160 190 197 196 204 190 217 168 179 144 142 121 161 184 222 245 229 201 206 208 247 268 238 248 238 245 224 168 163
20 107 119 148 178 164 179 173 169 171 173 165 156 127 118 123 100 208 182 169 169 210 225 247 260 264 273 268 250 198 171 182
37 69 117 128 176 151 120 132 179 164 171 140 109 126 104 99 111 121 129 175 165 157 205 239 257 284 245 254 279 262 223 231

GFSFLT2_con_3kmhel_123.txt.gz
Helicity
84 95 111 116 89 78 89 70 78 91 71 107 167 209 200 171 145 156 104 99 117 92 125 170 147 139 85 51 21 69 125 84
101 103 109 118 109 94 99 93 58 84 73 91 151 189 199 159 156 155 88 117 103 151 181 208 146 116 97 62 35 83 54 56
91 117 115 115 115 115 110 106 89 97 91 120 152 95 134 173 129 165 114 166 155 185 191 168 139 115 92 57 34 46 30 21
81 110 121 116 121 133 107 109 100 110 109 127 107 91 130 155 163 207 165 189 198 151 169 144 86 112 75 50 33 20 36 58
88 92 114 118 143 156 115 116 107 115 128 123 129 98 128 139 190 210 158 159 149 139 131 81 54 88 64 36 67 81 30 97
101 93 109 108 136 158 155 122 119 124 119 125 160 127 162 161 220 180 149 167 166 170 118 89 30 2 75 52 93 23 68 78
113 103 107 94 109 162 181 132 124 110 131 134 155 156 233 204 179 224 152 216 213 167 93 76 -49 68 54 127 48 58 104 96
111 108 76 87 120 172 184 146 163 126 144 158 172 186 239 250 211 233 204 228 235 158 90 75 28 161 143 93 63 77 61 77
90 105 77 85 109 131 149 145 156 203 166 156 183 225 225 246 251 200 259 290 220 198 31 111 65 148 98 85 77 88 63 63
114 97 108 92 99 123 153 146 194 190 211 208 156 236 228 233 268 194 220 230 309 200 76 26 44 78 77 100 119 84 94 104
129 112 122 130 107 120 143 155 214 202 191 178 179 203 247 276 293 213 214 261 282 210 187 204 148 101 70 87 119 101 88 67
88 83 111 137 160 136 147 150 169 215 187 161 161 171 259 254 320 255 220 303 299 303 179 93 83 102 68 132 110 171 89 83
66 71 79 122 166 169 161 197 273 240 180 99 219 212 214 287 310 338 262 305 362 400 326 169 103 117 139 159 210 150 128 125
66 62 60 69 117 137 127 158 294 282 183 141 157 199 275 229 257 294 291 336 380 342 289 290 166 135 241 237 234 119 118 112
62 58 64 58 65 162 225 206 186 155 150 138 132 174 226 239 221 256 241 304 428 378 378 321 156 143 219 267 292 219 189 141
87 78 76 70 47 107 164 166 147 182 179 138 130 142 172 183 222 220 252 320 396 376 410 256 206 205 176 179 167 152 196 173
74 74 78 88 41 107 133 124 65 68 90 112 130 155 152 186 218 235 297 306 325 515 399 355 246 190 184 143 148 120 102 104
52 72 72 80 47 61 94 52 20 118 159 170 129 169 174 193 177 187 189 235 299 468 443 410 289 114 188 209 188 208 132 116
52 45 48 55 65 45 60 47 85 134 128 111 146 202 172 174 171 171 161 219 279 370 325 420 222 183 189 185 236 189 182 106
64 72 30 51 48 63 61 77 133 115 80 103 145 152 168 174 176 170 154 204 285 314 416 392 415 339 248 162 254 247 190 141

GFSFLT2_con_3kmhel_129.txt.gz
Helicity
125 103 79 77 68 69 61 54 60 60 62 61 58 90 109 118 140 74 59 55 65 89 32 26 5 -7 -32 39 19 77 71 20
166 137 112 103 81 81 78 75 78 80 75 69 73 114 141 146 125 116 79 59 37 75 38 30 16 11 -22 26 40 87 88 77
204 168 141 131 124 94 86 95 89 88 102 100 107 106 134 157 134 110 116 95 77 81 82 68 54 45 2 27 42 87 102 118
231 200 157 166 158 156 119 118 122 101 99 115 116 112 123 144 139 136 147 137 95 88 104 97 113 57 50 15 91 90 183 140
228 207 184 179 192 207 191 158 140 129 111 129 118 126 118 140 159 166 186 198 170 156 136 133 81 43 43 19 79 70 175 177
243 225 206 189 197 225 225 214 186 168 128 154 142 138 164 163 181 209 233 244 242 194 114 109 93 29 58 14 75 98 183 177
268 249 212 201 194 234 230 208 218 204 176 167 170 181 198 195 232 226 231 252 261 192 131 128 124 106 62 61 135 163 198 161
273 271 247 226 215 267 243 213 215 203 201 187 194 192 231 242 270 272 251 263 267 217 159 136 133 133 104 82 160 171 183 155
265 291 254 246 283 222 240 204 204 186 197 180 185 220 230 257 292 289 254 283 275 244 185 164 115 198 121 84 116 170 176 154
195 282 279 289 285 259 237 230 161 168 175 176 169 227 253 270 301 303 257 295 268 266 254 203 200 204 160 -44 37 177 168 134
272 320 327 271 250 253 234 229 202 145 141 125 176 230 282 289 308 297 320 332 316 331 355 264 224 191 95 34 52 173 179 151
263 308 218 240 255 303 310 258 209 174 148 155 162 239 299 330 337 342 364 378 358 351 382 285 200 159 64 71 58 159 238 171
197 235 182 197 237 327 314 255 236 194 144 138 159 235 253 328 371 364 378 391 349 338 339 258 168 104 131 213 181 119 237 168
176 193 189 154 176 210 272 266 255 220 208 143 162 200 223 287 331 359 349 323 343 347 362 283 174 172 139 183 142 132 215 157
202 156 138 127 112 168 249 313 316 263 219 162 112 173 148 207 295 319 333 330 352 334 351 327 221 218 236 282 357 304 255 213
198 132 108 117 114 147 207 235 294 310 297 208 109 122 135 155 205 278 319 323 342 352 326 311 290 284 306 157 319 464 475 274
144 85 107 77 90 150 153 197 260 323 328 256 133 130 104 187 198 251 254 303 338 328 284 280 286 297 279 236 247 368 374 296
143 85 94 95 102 75 97 101 164 204 198 163 134 149 131 125 173 213 212 261 320 334 309 249 257 247 302 382 379 432 403 405
105 76 88 71 106 62 52 86 95 130 118 117 116 123 122 147 140 184 225 249 275 242 226 190 233 190 328 374 397 464 337 433
33 52 81 109 86 43 27 55 59 84 96 113 106 115 121 122 128 158 209 211 239 237 254 242 221 277 247 321 401 427 449 363

GFSFLT2_con_3kmhel_132.txt.gz
Helicity
138 92 71 54 57 44 48 58 55 57 62 51 65 76 91 96 111 105 60 46 75 65 52 15 59 76 45 105 102 74 63 27
179 159 124 85 66 88 82 82 71 67 64 56 74 108 114 112 118 99 89 69 48 31 34 11 36 55 49 104 95 75 86 66
216 199 169 136 118 86 109 108 97 82 80 73 109 100 117 125 106 90 92 102 56 44 56 40 33 118 26 75 93 75 82 67
206 221 208 189 167 143 126 135 129 104 82 97 109 100 110 123 111 114 108 130 101 88 91 63 54 63 115 148 123 78 89 79
184 220 232 235 214 186 169 167 170 148 123 121 101 117 105 120 139 124 127 151 158 131 121 91 66 45 110 126 139 123 145 116
260 235 242 237 256 224 202 194 191 207 152 121 134 141 131 133 146 154 167 179 181 145 117 66 38 40 6 129 114 94 140 143
243 294 253 235 236 240 236 219 215 197 188 147 149 157 160 173 152 159 181 186 180 156 122 90 49 16 -0 98 124 172 160 173
249 246 289 289 214 220 243 246 224 219 207 179 161 158 184 203 200 177 183 179 174 173 165 131 68 49 76 134 137 148 171 212
239 247 281 278 275 233 226 220 231 217 211 208 166 175 207 216 216 197 178 172 181 183 173 152 118 110 115 168 114 141 162 188
230 224 254 249 284 261 250 223 196 203 217 215 186 196 207 233 236 213 199 195 208 201 228 232 167 127 150 213 216 225 164 163
256 254 240 243 260 310 225 210 203 208 198 206 187 193 204 225 240 242 231 218 224 219 234 267 234 200 177 202 251 223 188 169
291 297 215 273 311 254 245 217 184 190 188 181 188 191 203 227 260 274 271 258 230 226 243 242 243 213 184 225 149 88 106 139
293 305 262 315 305 287 257 216 214 200 188 138 175 179 207 272 288 296 299 290 252 234 242 267 273 216 214 100 115 170 146 131
436 377 304 264 295 244 224 233 211 229 233 185 186 175 196 270 283 262 311 309 313 261 267 292 253 249 222 149 161 192 191 142
403 345 314 298 230 224 242 266 251 263 274 241 211 195 213 207 242 255 285 329 325 308 285 313 301 233 197 212 252 196 210 211
360 320 269 254 195 167 190 228 200 175 206 209 187 156 166 213 208 228 282 319 296 296 287 286 298 274 250 116 171 302 327 326
303 270 276 110 87 112 151 191 185 170 220 223 185 129 131 171 203 160 219 254 263 290 296 309 313 307 339 227 154 257 198 377
332 298 272 170 175 198 174 174 113 115 148 157 174 157 155 153 160 155 174 232 276 288 285 285 330 303 282 234 270 268 328 393
322 216 274 217 240 198 131 107 78 50 81 104 129 148 165 166 149 137 183 180 250 253 266 271 274 287 286 267 287 221 344 319
218 207 170 151 132 112 82 54 48 71 53 95 98 89 105 116 105 146 167 164 195 233 258 254 245 254 271 243 246 193 377 503